Location: Oriwa
(40.7500°S, 175.3333°E)
Time: 12:19:45
(UTC+00:00)

ASTEX 1 - Pass Details

Date: 03 February 2023
Orbit: 717 x 743 km, 92.7° (Epoch: 30 March)

Event Time Altitude Azimuth Distance (km) Brightness Sun altitude
Rises 13:24:49 0° 177° (S) 3,165 7.8 -31.5°
Reaches altitude 10° 13:27:08 10° 179° (S) 2,236 6.7 -31.4°
Enters shadow 13:30:31 44° 192° (SSW) 1,013 4.4 -31.2°
